THOR ABLESTAR DEB, 1435

Orbit data source: Space-Track

THOR ABLESTAR DEB, 1435 is space debris in LEO originally from a launch on Thu, 24 Jun 1965 UTC launched from the Air Force Western Test Range (AFWTR). Debris objects in space refer to the collection of defunct objects orbiting the Earth. Examples of debris include non-operational satellites, rocket bodies, and fragments generated from explosions, collisions, or faulty payload assembly.

Loading next visibility...
Identifier
1435, 1965-048D
Orbit
LEO
Country
Flag of USUS
Related business
Manufacturer
Unknown
Mission
Spacecraft
Bus & Motor
Unknown
Mass
Unknown
Launch date (UTC)
1965-06-24 (61 years ago)
Launch vehicle
Unknown
Launch site
Air Force Western Test Range (AFWTR)
Object type
Payload
Rocket body
Debris
Shape & HBR
Unknown shape, 0.1 m
Radar Cross Section
Small (<0.1 m²)

Expand to show TLE details & history
Last TLE update: 15 hours ago

TLE from 15 hours ago
0 THOR ABLESTAR DEB
1 01435U 65048D   26070.58372963  .00000665  00000-0  69966-3 0  9990
2 01435  89.8795 291.2633 0055860 248.7300 139.5816 13.73228883 13490
Epoch: 2026-03-11T14:00Z
TLE epoch observation values (Epoch: 2026-03-11T14:00:34.240Z)
Latitude
28.76697°
Longitude
-88.05943°
Altitude
1,023.073 km
Speed
7.327 km/s
True Right ascension
19h 25m 18s
True Declination
28° 37' 38"
Sunlit
Object was in daylight at epoch
Visualization orbit readout
Latitude
Unknown
Longitude
Unknown
Altitude
Unknown
Speed
Unknown
Apparent Right ascension
Unknown
Apparent Declination
Unknown
Sunlit
N/A
Visualization observer readout
Local Sidereal Time
09:33:26
Azimuth
Unknown
Elevation
Unknown
Doppler factor
Unknown
Orbital elements
Apogee altitude
1,026.148 km
Perigee altitude
943.887 km
Semi-major axis
7,363.155 km
Eccentricity
0.00559
Inclination
89.8795°
RAAN
291.2633°
Arg. of periapsis
248.73°
True anomaly
139.99442°
Mean anomaly
139.5816°
Eccentric anomaly
139.78823°
Mean motion
3.43516 °/min
Orbital period
104.8 mins
BSTAR
0.00069966
Loading maneuver chart data...
Computing Atmospheric mass density...

Documentation

Showing up to 5 results
|